Погода в Санджу

Южная Корея     36°25′07″N   128°09′32″E
темп.,
°C
ветер,
м/с
пор.,
м/с
влажн.,
%
обл.,
%
осадки,
мм/ч
давл.,
гПа
погр.,
м
15 апреля, чт
чт1500:00+4з11603 0.0 102011
03:00+3зюз11658 0.0 102010
06:00+3з1170100 0.0 102010
09:00+8юв0154100 0.0 1021369
12:00+14св1138100 0.0 1020861
15:00+14ююв2232100 0.0 1018928
18:00+14ю11430 0.0 101812
21:00+9в114985 0.0 101810
16 апреля, пт
пт1600:00+7в0058100 0.0 101910
03:00+6ююв1166100 0.0 101810
06:00+6вюв1169100 0.0 101710
09:00+9юв115651 0.0 1018281
12:00+14з2651100 0.0 1017619
15:00+12з41072100 0.2 1017735
18:00+13з5872100 0.0 1017577
21:00+10зсз2283100 0.0 101836
17 апреля, сб
сб1700:00+9зсз1186100 0.0 101810
03:00+8зсз0089100 0.0 101610
06:00+7зюз0090100 0.0 101510
09:00+13ююз13732 0.0 1013472
12:00+18зюз7123935 0.0 10102716
15:00+12зсз8126375 0.3 10101179
18:00+10зсз913480 0.0 10111638
21:00+7з714560 0.0 10131191
18 апреля, вс
вс1800:00+6з714705 0.0 1013906
03:00+6з9157297 0.0 10111091
06:00+7зсз8157180 0.0 10121159
09:00+10зсз916575 0.0 10121434
12:00+15зсз912361 0.0 10121896
15:00+16зсз79330 0.0 10111927
18:00+14з58450 0.0 1012484
21:00+9з49550 0.0 1015249
19 апреля, пн
пн1900:00+6зюз22690 0.0 101625
03:00+5зюз22740 0.0 101625
06:00+4зюз22780 0.0 101722
09:00+11зюз24490 0.0 1017530
12:00+19зсз68260 0.0 10151472
15:00+20зсз68250 0.0 10141597
18:00+18зсз37360 0.0 1013209
21:00+11юз22525 0.0 101616